Llagostera





Hora UTC 12:15
Temperatura 14.2 ºC
Humitat 81.0 %
Pressió 1027.2 hPa
Pluja 0.0 mm
Velocitat vent 8.0 km/h
Direcció vent

Dades diàries 2021-03-01



Hora UTC (hivern +1h; estiu +2h)
Temperatura (ºC) Humitat (%) Pressió (hPa) Velocitat vent (km/h) Precipitació (mm)
Hora UTC Aire Humitat Pressió Vel. Dir. Vel. Max Dir. Intent. màx 5 min.
00:05 6.8 91.0 1027.4 0.0 0.0 0.0
00:10 6.7 91.0 1027.3 0.0 0.0 0.0
00:15 6.6 92.0 1027.4 1.6 4.8 0.0
00:20 6.7 93.0 1027.4 1.6 4.8 0.0
00:25 7.1 94.0 1027.4 0.0 4.8 0.0
00:30 7.1 94.0 1027.4 0.0 4.8 0.0
00:35 7.1 94.0 1027.4 0.0 4.8 0.0
00:40 6.9 94.0 1027.2 0.0 4.8 0.0
00:45 6.8 93.0 1027.3 0.0 4.8 0.0
00:50 6.7 93.0 1027.3 1.6 4.8 0.0
00:55 6.6 93.0 1027.4 3.2 4.8 0.0
01:00 6.7 94.0 1027.3 3.2 4.8 0.0
01:05 6.7 94.0 1027.3 1.6 4.8 0.0
01:10 6.7 94.0 1027.3 1.6 4.8 0.0
01:15 6.9 95.0 1027.3 3.2 6.4 0.0
01:20 7.1 94.0 1027.2 1.6 6.4 0.0
01:25 7.1 94.0 1027.2 1.6 6.4 0.0
01:30 6.8 94.0 1027.2 0.0 6.4 0.0
01:35 6.9 94.0 1027.3 1.6 6.4 0.0
01:40 7.0 94.0 1027.2 3.2 6.4 0.0
01:45 6.8 94.0 1027.2 1.6 6.4 0.0
01:50 6.8 94.0 1027.2 1.6 6.4 0.0
01:55 6.8 94.0 1027.2 0.0 6.4 0.0
02:00 6.7 94.0 1027.2 0.0 6.4 0.0
02:05 6.6 94.0 1027.2 0.0 6.4 0.0
02:10 6.4 94.0 1027.2 0.0 6.4 0.0
02:15 6.3 94.0 1027.2 0.0 6.4 0.0
02:20 6.2 94.0 1027.2 1.6 6.4 0.0
02:25 6.2 94.0 1027.2 1.6 6.4 0.0
02:30 6.2 94.0 1027.2 1.6 6.4 0.0
02:35 6.3 94.0 1027.2 0.0 6.4 0.0
02:40 6.4 95.0 1027.2 0.0 6.4 0.0
02:45 6.6 95.0 1027.2 0.0 6.4 0.0
02:50 6.6 95.0 1027.1 0.0 6.4 0.0
02:55 6.6 94.0 1027.1 0.0 6.4 0.0
03:00 6.5 94.0 1027.2 0.0 6.4 0.0
03:05 6.4 94.0 1027.1 0.0 6.4 0.0
03:10 6.4 95.0 1027.2 0.0 6.4 0.0
03:15 6.4 94.0 1027.2 0.0 6.4 0.0
03:20 6.4 95.0 1027.2 1.6 6.4 0.0
03:25 6.7 95.0 1027.2 1.6 6.4 0.0
03:30 6.8 95.0 1027.1 1.6 6.4 0.0
03:35 6.7 94.0 1027.2 1.6 6.4 0.0
03:40 6.7 94.0 1027.1 0.0 6.4 0.0
03:45 6.7 94.0 1027.0 1.6 6.4 0.0
03:50 6.5 94.0 1027.1 1.6 6.4 0.0
03:55 6.4 95.0 1027.2 0.0 6.4 0.0
04:00 6.4 95.0 1027.1 0.0 6.4 0.0
04:05 6.3 94.0 1027.2 0.0 6.4 0.0
04:10 6.3 94.0 1027.1 1.6 6.4 0.0
04:15 6.4 95.0 1027.1 1.6 6.4 0.0
04:20 6.6 95.0 1027.1 1.6 6.4 0.0
04:25 6.6 95.0 1027.1 1.6 6.4 0.0
04:30 6.7 95.0 1027.1 0.0 6.4 0.0
04:35 6.7 95.0 1027.1 0.0 6.4 0.0
04:40 6.7 95.0 1027.1 0.0 6.4 0.0
04:45 6.7 95.0 1027.3 0.0 6.4 0.0
04:50 6.7 95.0 1027.2 0.0 6.4 0.0
04:55 6.8 95.0 1027.3 0.0 6.4 0.0
05:00 6.7 95.0 1027.2 0.0 6.4 0.0
05:05 6.8 95.0 1027.3 0.0 6.4 0.0
05:10 6.8 95.0 1027.4 0.0 6.4 0.0
05:15 6.8 95.0 1027.5 0.0 6.4 0.0
05:20 6.9 95.0 1027.3 0.0 6.4 0.0
05:25 6.9 95.0 1027.4 0.0 6.4 0.0
05:30 7.0 95.0 1027.3 0.0 6.4 0.0
05:35 7.0 95.0 1027.3 0.0 6.4 0.0
05:40 7.1 95.0 1027.3 0.0 6.4 0.0
05:45 7.2 95.0 1027.3 0.0 6.4 0.0
05:50 7.2 95.0 1027.3 0.0 6.4 0.0
05:55 7.3 95.0 1027.2 0.0 6.4 0.0
06:00 7.4 95.0 1027.3 0.0 6.4 0.0
06:05 7.4 95.0 1027.4 0.0 6.4 0.0
06:10 7.5 95.0 1027.5 0.0 6.4 0.0
06:15 7.6 95.0 1027.3 0.0 6.4 0.0
06:20 7.6 95.0 1027.2 0.0 6.4 0.0
06:25 7.6 95.0 1027.3 0.0 6.4 0.0
06:30 7.7 95.0 1027.4 0.0 6.4 0.0
06:35 7.7 95.0 1027.4 0.0 6.4 0.0
06:40 7.7 95.0 1027.4 0.0 6.4 0.0
06:45 7.7 95.0 1027.5 0.0 6.4 0.0
06:50 7.8 95.0 1027.5 0.0 6.4 0.0
06:55 7.8 95.0 1027.5 0.0 6.4 0.0
07:00 7.8 95.0 1027.6 0.0 6.4 0.0
07:05 7.8 95.0 1027.6 0.0 6.4 0.0
07:10 7.9 95.0 1027.7 0.0 6.4 0.0
07:15 8.0 95.0 1027.7 0.0 6.4 0.0
07:20 8.0 95.0 1027.7 0.0 6.4 0.0
07:25 8.1 95.0 1027.7 0.0 6.4 0.0
07:30 8.2 95.0 1027.8 0.0 6.4 0.0
07:35 8.4 95.0 1027.8 0.0 6.4 0.0
07:40 8.5 95.0 1027.8 0.0 6.4 0.0
07:45 8.6 95.0 1027.9 0.0 6.4 0.0
07:50 8.6 95.0 1027.9 0.0 6.4 0.0
07:55 8.8 94.0 1027.9 1.6 6.4 0.0
08:00 8.9 94.0 1027.9 1.6 6.4 0.0
08:05 9.1 94.0 1027.7 0.0 6.4 0.0
08:10 9.1 94.0 1027.7 0.0 6.4 0.0
08:15 9.2 94.0 1027.7 1.6 6.4 0.0
08:20 9.4 94.0 1027.8 1.6 6.4 0.0
08:25 9.7 94.0 1027.7 3.2 6.4 0.0
08:30 9.9 93.0 1027.6 3.2 6.4 0.0
08:35 10.1 93.0 1027.7 1.6 6.4 0.0
08:40 10.2 93.0 1027.9 3.2 6.4 0.0
08:45 10.3 92.0 1027.9 3.2 6.4 0.0
08:50 10.4 92.0 1027.7 1.6 6.4 0.0
08:55 10.5 92.0 1027.6 1.6 6.4 0.0
09:00 10.6 91.0 1027.7 0.0 6.4 0.0
09:05 10.7 92.0 1027.6 1.6 6.4 0.0
09:10 10.8 92.0 1027.7 1.6 6.4 0.0
09:15 10.9 92.0 1027.7 1.6 6.4 0.0
09:20 11.1 91.0 1027.7 1.6 6.4 0.0
09:25 11.2 91.0 1027.7 1.6 6.4 0.0
09:30 11.4 91.0 1027.8 0.0 6.4 0.0
09:35 11.6 91.0 1027.8 1.6 6.4 0.0
09:40 11.8 90.0 1027.7 1.6 6.4 0.0
09:45 12.0 89.0 1027.6 3.2 8.0 0.0
09:50 12.1 88.0 1027.5 4.8 8.0 0.0
09:55 12.1 88.0 1027.6 4.8 8.0 0.0
10:00 12.2 88.0 1027.8 4.8 11.3 0.0
10:05 12.3 88.0 1027.7 6.4 17.7 0.0
10:10 12.3 87.0 1027.7 9.7 17.7 0.0
10:15 12.3 87.0 1027.7 11.3 17.7 0.0
10:20 12.4 88.0 1027.7 6.4 17.7 0.0
10:25 12.5 86.0 1027.8 6.4 17.7 0.0
10:30 12.6 87.0 1027.6 6.4 17.7 0.0
10:35 12.7 87.0 1027.6 8.0 17.7 0.0
10:40 12.8 86.0 1027.7 8.0 17.7 0.0
10:45 12.8 86.0 1027.8 6.4 17.7 0.0
10:50 13.0 86.0 1027.7 6.4 17.7 0.0
10:55 13.1 86.0 1027.9 4.8 17.7 0.0
11:00 13.2 84.0 1027.9 4.8 17.7 0.0
11:05 13.4 83.0 1027.8 6.4 17.7 0.0
11:10 13.6 83.0 1027.7 8.0 17.7 0.0
11:15 13.7 83.0 1027.6 8.0 17.7 0.0
11:20 13.8 82.0 1027.6 6.4 17.7 0.0
11:25 13.8 82.0 1027.5 8.0 19.3 0.0
11:30 13.7 82.0 1027.4 9.7 19.3 0.0
11:35 13.6 82.0 1027.4 9.7 19.3 0.0
11:40 13.6 82.0 1027.3 9.7 19.3 0.0
11:45 13.7 82.0 1027.4 8.0 19.3 0.0
11:50 13.7 83.0 1027.4 8.0 19.3 0.0
11:55 13.8 82.0 1027.3 8.0 19.3 0.0
12:00 13.8 81.0 1027.3 11.3 19.3 0.0
12:05 13.9 81.0 1027.2 11.3 19.3 0.0
12:10 14.3 82.0 1027.3 8.0 19.3 0.0
12:15 14.2 81.0 1027.2 8.0 19.3 0.0
Màxima 14.3 95.0 1027.9 11.3 19.3 0.0
Mínima 6.2 81.0 1027.0
Total 0.0